This demonstration page uses our WeatherBlox Daily Observations layout. Learn more.

Left ArrowRight Arrow

39.01783, -85.05884

Hourly Observations for October 10, 2015

Temp ( °F °C ) Dew Point ( °F °C ) Humidity (%) Winds ( mph kmh ) Pressure ( in mb ) Visibility ( mi km ) Precip ( " mm )
12:52 am 00:52 Mostly Cloudy 56 13.3 47 8.3 72 72 N 7 11 30.12 1020 10 16 N/A
1:52 am 01:52 Mostly Cloudy 55 12.8 48 8.9 77 77 N 8 13 30.13 1020 10 16 N/A
2:52 am 02:52 Mostly Cloudy 55 12.8 48 8.9 77 77 NNE 8 13 30.13 1020 10 16 N/A
3:52 am 03:52 Partly Cloudy 53 11.7 48 8.9 83 83 N 9 15 30.14 1021 10 16 N/A
4:52 am 04:52 Cloudy 52 11.1 48 8.9 86 86 N 7 11 30.14 1021 10 16 N/A
5:52 am 05:52 Clear 52 11.1 47 8.3 83 83 NNE 7 11 30.16 1021 10 16 N/A
6:52 am 06:52 Partly Cloudy 51 10.6 47 8.3 86 86 N 7 11 30.17 1022 10 16 N/A
7:52 am 07:52 Partly Cloudy 51 10.6 46 7.8 83 83 NE 9 15 30.16 1021 10 16 N/A
8:52 am 08:52 Partly Cloudy 53 11.7 44 6.7 72 72 NE 13 20 30.17 1022 10 16 N/A
9:52 am 09:52 Mostly Sunny 56 13.3 43 6.1 62 62 ENE 14 22 30.19 1022 10 16 N/A
10:52 am 10:52 Partly Cloudy 59 15 43 6.1 56 56 ENE 13 20 30.18 1022 10 16 N/A
11:52 am 11:52 Partly Cloudy 61 16.1 42 5.6 50 50 ENE 12 19 30.17 1022 10 16 N/A
12:52 pm 12:52 Partly Cloudy 63 17.2 44 6.7 50 50 N 6 9 30.16 1022 10 16 N/A
1:52 pm 13:52 Mostly Sunny 64 17.8 43 6.1 46 46 VRB 6 9 30.14 1021 10 16 N/A
2:52 pm 14:52 Mostly Sunny 67 19.4 43 6.1 42 42 VRB 7 11 30.11 1020 10 16 N/A
3:52 pm 15:52 Partly Cloudy 67 19.4 41 5 39 39 NW 7 11 30.09 1019 10 16 N/A
4:52 pm 16:52 Partly Cloudy 67 19.4 40 4.4 37 37 VRB 3 6 30.08 1019 10 16 N/A
5:52 pm 17:52 Mostly Cloudy 66 18.9 41 5 40 40 N N/A 30.07 1018 10 16 N/A
6:52 pm 18:52 Mostly Cloudy 64 17.8 39 3.9 40 40 N N/A 30.05 1018 10 16 N/A
7:52 pm 19:52 Partly Cloudy 57 13.9 43 6.1 60 60 N N/A 30.06 1018 10 16 N/A
8:52 pm 20:52 Partly Cloudy 52 11.1 42 5.6 69 69 N N/A 30.06 1018 10 16 N/A
9:52 pm 21:52 Partly Cloudy 50 10 42 5.6 74 74 N N/A 30.07 1018 10 16 N/A
10:52 pm 22:52 Partly Cloudy 50 10 43 6.1 77 77 N N/A 30.07 1018 10 16 N/A
11:52 pm 23:52 Partly Cloudy 46 7.8 42 5.6 86 86 SSW 3 6 30.06 1018 10 16 N/A

Powered by AerisWeather